Time,TemperatureF,DewpointF,PressureIn,WindDirection,WindDirectionDegrees,WindSpeedMPH,WindSpeedGustMPH,Humidity,HourlyPrecipIn,Conditions,Clouds,dailyrainin,SoftwareType,DateUTC
2013-03-17 00:00:00,32.0,-99.9,-100.00,SE,135,5.0,-999.0,-999,-99.99,,,-99.99,,2013-03-17 07:00:00,
2013-03-17 01:00:00,32.0,-99.9,-100.00,ENE,59,6.0,-999.0,-999,-99.99,,,-99.99,,2013-03-17 08:00:00,
2013-03-17 02:00:00,32.0,-99.9,-100.00,ENE,68,6.0,-999.0,-999,-99.99,,,-99.99,,2013-03-17 09:00:00,
2013-03-17 03:00:00,31.0,-99.9,-100.00,NE,55,5.0,-999.0,-999,-99.99,,,-99.99,,2013-03-17 10:00:00,
2013-03-17 04:00:00,30.0,-99.9,-100.00,East,92,5.0,-999.0,-999,-99.99,,,-99.99,,2013-03-17 11:00:00,
2013-03-17 05:00:00,30.0,-99.9,-100.00,SSW,194,7.0,-999.0,-999,-99.99,,,-99.99,,2013-03-17 12:00:00,
2013-03-17 06:00:00,30.0,-99.9,-100.00,WSW,247,13.0,-999.0,-999,-99.99,,,-99.99,,2013-03-17 13:00:00,
2013-03-17 07:00:00,29.0,-99.9,-100.00,WSW,240,13.0,-999.0,-999,-99.99,,,-99.99,,2013-03-17 14:00:00,
2013-03-17 09:00:00,29.0,-99.9,-100.00,SW,231,7.0,-999.0,-999,-99.99,,,-99.99,,2013-03-17 16:00:00,
2013-03-17 10:00:00,32.0,-99.9,-100.00,SW,233,10.0,-999.0,-999,-99.99,,,-99.99,,2013-03-17 17:00:00,
2013-03-17 12:00:00,34.0,-99.9,-100.00,East,81,5.0,-999.0,-999,-99.99,,,-99.99,,2013-03-17 19:00:00,
2013-03-17 13:00:00,37.0,-99.9,-100.00,South,182,6.0,-999.0,-999,-99.99,,,-99.99,,2013-03-17 20:00:00,
2013-03-17 14:00:00,38.0,-99.9,-100.00,SSW,197,7.0,-999.0,-999,-99.99,,,-99.99,,2013-03-17 21:00:00,
2013-03-17 15:00:00,40.0,-99.9,-100.00,South,179,6.0,-999.0,-999,-99.99,,,-99.99,,2013-03-17 22:00:00,
2013-03-17 16:00:00,41.0,-99.9,-100.00,North,352,7.0,-999.0,-999,-99.99,,,-99.99,,2013-03-17 23:00:00,
2013-03-17 17:00:00,40.0,-99.9,-100.00,NNW,342,8.0,-999.0,-999,-99.99,,,-99.99,,2013-03-18 00:00:00,
2013-03-17 18:00:00,38.0,-99.9,-100.00,NNW,345,5.0,-999.0,-999,-99.99,,,-99.99,,2013-03-18 01:00:00,
2013-03-17 19:00:00,36.0,-99.9,-100.00,WSW,250,5.0,-999.0,-999,-99.99,,,-99.99,,2013-03-18 02:00:00,
2013-03-17 20:00:00,33.0,-99.9,-100.00,NE,34,3.0,-999.0,-999,-99.99,,,-99.99,,2013-03-18 03:00:00,
2013-03-17 21:00:00,32.0,-99.9,-100.00,SSW,195,3.0,-999.0,-999,-99.99,,,-99.99,,2013-03-18 04:00:00,
2013-03-17 22:00:00,31.0,-99.9,-100.00,SW,228,5.0,-999.0,-999,-99.99,,,-99.99,,2013-03-18 05:00:00,
2013-03-17 23:00:00,31.0,-99.9,-100.00,SW,223,7.0,-999.0,-999,-99.99,,,-99.99,,2013-03-18 06:00:00,